Weather History for KHYR - May, 2013

Change the Weather History Date:

Monday, May 13, 2013

  Actual Average Record
Temperature  
Mean Temperature 40 °F -  
Max Temperature 60 °F 72 °F 73 °F (1998)
Min Temperature 21 °F 45 °F 21 °F (2013)
Degree Days  
Heating Degree Days 24    
Moisture  
Dew Point 24 °F    
Average Humidity 50    
Maximum Humidity 89    
Minimum Humidity 23    
Precipitation  
Precipitation 0.00 in - - ()
Sea Level Pressure  
Sea Level Pressure 30.02 in    
Wind  
Wind Speed 4 mph (South)    
Max Wind Speed 12 mph    
Max Gust Speed 22 mph    
Visibility 10 miles    
Events      
Averages and records for this station are not official NWS values.
T = Trace of Precipitation, MM = Missing Value Source: NWS Daily Summary

Daily Weather History Graph

Daily Weather History Graph

Search for Another Location

Airport or City:

Trip Planner

Search our weather history database for the weather conditions in past years. The results will help you decide how hot, cold, wet, or windy it might be!

Date:

Astronomy

May. 13, 2013 Rise Set
Actual Time 5:35 AM CDT 8:29 PM CDT
Civil Twilight 5:00 AM CDT 9:04 PM CDT
Nautical Twilight 4:16 AM CDT 9:49 PM CDT
Astronomical Twilight 3:23 AM CDT 10:42 PM CDT
Moon 8:20 AM CDT (5/13) 11:38 PM CDT (5/13)
Length of Visible Light 16h 03m
Length of Day
14h 53m
Waxing Crescent, 12% of the Moon is Illuminated
May 13
Waxing Crescent
May 17
First Quarter
May 24
Full
May 31
Last Quarter
Jun 8
New

Hourly Weather History & Observations

Time (CDT) Temp. Windchill Dew Point Humidity Pressure Visibility Wind Dir Wind Speed Gust Speed Precip Events Conditions
12:53 AM 27.0 °F - 19.0 °F 72% 30.17 in 10.0 mi Calm Calm - N/A   Clear
1:53 AM 27.0 °F - 19.9 °F 75% 30.17 in 10.0 mi Calm Calm - N/A   Clear
2:53 AM 25.0 °F - 19.0 °F 78% 30.16 in 10.0 mi Calm Calm - N/A   Clear
3:53 AM 24.1 °F - 18.0 °F 77% 30.15 in 10.0 mi Calm Calm - N/A   Clear
4:53 AM 23.0 °F - 19.0 °F 85% 30.15 in 10.0 mi Calm Calm - N/A   Clear
5:53 AM 21.9 °F - 19.0 °F 89% 30.16 in 10.0 mi Calm Calm - N/A   Clear
6:53 AM 28.9 °F - 24.1 °F 82% 30.16 in 10.0 mi Calm Calm - N/A   Clear
7:53 AM 41.0 °F 38.0 °F 21.9 °F 47% 30.16 in 10.0 mi South 4.6 mph - N/A   Clear
8:53 AM 46.0 °F 41.9 °F 18.0 °F 33% 30.15 in 10.0 mi SSE 8.1 mph - N/A   Clear
9:53 AM 48.9 °F - 19.0 °F 31% 30.13 in 10.0 mi South 9.2 mph - N/A   Clear
10:53 AM 52.0 °F - 19.0 °F 27% 30.10 in 10.0 mi SSW 9.2 mph - N/A   Clear
11:53 AM 54.0 °F - 18.0 °F 24% 30.07 in 10.0 mi SSE 9.2 mph 17.3 mph N/A   Clear
12:53 PM 57.0 °F - 19.0 °F 23% 30.03 in 10.0 mi South 8.1 mph 18.4 mph N/A   Clear
1:53 PM 57.9 °F - 19.9 °F 23% 30.01 in 10.0 mi SW 8.1 mph 16.1 mph N/A   Clear
3:53 PM 54.0 °F - 32.0 °F 43% 29.95 in 10.0 mi SSW 5.8 mph - 0.00 in   Overcast
4:53 PM 57.0 °F - 28.9 °F 34% 29.92 in 10.0 mi South 9.2 mph - N/A   Mostly Cloudy
5:53 PM 60.1 °F - 30.0 °F 32% 29.90 in 10.0 mi South 11.5 mph 21.9 mph N/A   Scattered Clouds
7:53 PM 57.0 °F - 32.0 °F 39% 29.82 in 10.0 mi South 6.9 mph - N/A   Clear
8:53 PM 55.0 °F - 32.0 °F 42% 29.81 in 10.0 mi Variable 5.8 mph - N/A   Clear
9:53 PM 54.0 °F - 33.1 °F 45% 29.77 in 10.0 mi South 9.2 mph - N/A   Clear
10:53 PM 55.0 °F - 33.1 °F 43% 29.74 in 10.0 mi SSE 11.5 mph 16.1 mph N/A   Overcast
11:53 PM 55.0 °F - 34.0 °F 45% 29.72 in 10.0 mi SSE 10.4 mph 18.4 mph N/A   Mostly Cloudy